Time,TemperatureF,DewpointF,PressureIn,WindDirection,WindDirectionDegrees,WindSpeedMPH,WindSpeedGustMPH,Humidity,HourlyPrecipIn,Conditions,Clouds,dailyrainin,SoftwareType,DateUTC
2013-02-08 00:02:00,33.7,33.0,29.80,ESE,114,0.0,1.0,96,0.00,,,0.00,weatherlink.com 1.10,2013-02-08 05:02:00,
2013-02-08 00:17:00,33.8,33.0,29.80,ESE,115,0.0,0.0,96,0.00,,,0.00,weatherlink.com 1.10,2013-02-08 05:17:00,
2013-02-08 00:32:00,33.8,33.0,29.81,ESE,115,0.0,0.0,96,0.01,,,0.01,weatherlink.com 1.10,2013-02-08 05:32:00,
2013-02-08 00:47:00,33.7,33.0,29.81,WNW,286,2.0,2.0,96,0.01,,,0.01,weatherlink.com 1.10,2013-02-08 05:47:00,
2013-02-08 01:02:00,33.9,33.0,29.80,NNW,343,2.0,5.0,96,0.01,,,0.01,weatherlink.com 1.10,2013-02-08 06:02:00,
2013-02-08 01:17:00,33.8,33.0,29.81,NW,308,0.0,3.0,96,0.01,,,0.01,weatherlink.com 1.10,2013-02-08 06:17:00,
2013-02-08 01:32:00,33.8,33.0,29.81,WNW,302,2.0,4.0,96,0.00,,,0.01,weatherlink.com 1.10,2013-02-08 06:32:00,
2013-02-08 01:47:00,33.8,33.0,29.81,WNW,301,3.0,6.0,96,0.00,,,0.01,weatherlink.com 1.10,2013-02-08 06:47:00,
2013-02-08 02:02:00,33.6,33.0,29.81,NW,320,1.0,8.0,96,0.00,,,0.01,weatherlink.com 1.10,2013-02-08 07:02:00,
2013-02-08 02:17:00,33.1,32.0,29.83,NW,320,6.0,9.0,96,0.00,,,0.01,weatherlink.com 1.10,2013-02-08 07:17:00,
2013-02-08 02:32:00,32.8,32.0,29.83,NW,304,6.0,9.0,96,0.00,,,0.01,weatherlink.com 1.10,2013-02-08 07:32:00,
2013-02-08 02:47:00,32.8,32.0,29.84,NW,313,3.0,15.0,96,0.00,,,0.01,weatherlink.com 1.10,2013-02-08 07:47:00,
2013-02-08 03:02:00,32.8,32.0,29.84,WSW,258,6.0,13.0,96,0.00,,,0.01,weatherlink.com 1.10,2013-02-08 08:02:00,
2013-02-08 03:17:00,32.8,32.0,29.85,NW,323,1.0,10.0,96,0.00,,,0.01,weatherlink.com 1.10,2013-02-08 08:17:00,
2013-02-08 03:32:00,32.9,32.0,29.85,WSW,257,3.0,9.0,96,0.00,,,0.01,weatherlink.com 1.10,2013-02-08 08:32:00,
2013-02-08 03:47:00,32.9,32.0,29.85,NW,317,7.0,10.0,96,0.00,,,0.01,weatherlink.com 1.10,2013-02-08 08:47:00,
2013-02-08 04:02:00,33.0,32.0,29.85,West,263,5.0,12.0,97,0.00,,,0.01,weatherlink.com 1.10,2013-02-08 09:02:00,
2013-02-08 04:17:00,33.0,32.0,29.86,WNW,294,3.0,12.0,97,0.00,,,0.01,weatherlink.com 1.10,2013-02-08 09:17:00,
2013-02-08 04:32:00,32.9,32.0,29.86,WSW,255,6.0,12.0,97,0.00,,,0.01,weatherlink.com 1.10,2013-02-08 09:32:00,
2013-02-08 04:47:00,32.9,32.0,29.87,NW,322,4.0,14.0,97,0.00,,,0.01,weatherlink.com 1.10,2013-02-08 09:47:00,
2013-02-08 05:02:00,32.8,32.0,29.88,West,275,3.0,12.0,97,0.00,,,0.01,weatherlink.com 1.10,2013-02-08 10:02:00,
2013-02-08 05:17:00,32.7,32.0,29.89,NNW,336,7.0,18.0,97,0.00,,,0.01,weatherlink.com 1.10,2013-02-08 10:17:00,
2013-02-08 05:32:00,32.6,32.0,29.90,NW,320,4.0,15.0,97,0.00,,,0.01,weatherlink.com 1.10,2013-02-08 10:32:00,
2013-02-08 05:48:00,32.6,32.0,29.91,WNW,298,9.0,15.0,96,0.00,,,0.01,weatherlink.com 1.10,2013-02-08 10:48:00,
2013-02-08 06:03:00,32.7,31.0,29.92,WNW,300,4.0,17.0,94,0.00,,,0.01,weatherlink.com 1.10,2013-02-08 11:03:00,
2013-02-08 06:18:00,32.8,31.0,29.93,NNE,20,4.0,13.0,93,0.00,,,0.01,weatherlink.com 1.10,2013-02-08 11:18:00,
2013-02-08 06:33:00,32.4,30.0,29.94,North,355,6.0,18.0,91,0.00,,,0.01,weatherlink.com 1.10,2013-02-08 11:33:00,
2013-02-08 06:48:00,32.1,29.0,29.95,NW,317,7.0,13.0,89,0.00,,,0.01,weatherlink.com 1.10,2013-02-08 11:48:00,
2013-02-08 07:03:00,31.8,28.0,29.96,NNE,21,5.0,17.0,87,0.00,,,0.01,weatherlink.com 1.10,2013-02-08 12:03:00,
2013-02-08 07:18:00,31.5,28.0,29.98,North,355,8.0,16.0,88,0.00,,,0.01,weatherlink.com 1.10,2013-02-08 12:18:00,
2013-02-08 07:33:00,31.0,28.0,29.99,West,274,5.0,19.0,87,0.00,,,0.01,weatherlink.com 1.10,2013-02-08 12:33:00,
2013-02-08 07:48:00,30.6,27.0,30.00,WSW,254,11.0,16.0,87,0.00,,,0.01,weatherlink.com 1.10,2013-02-08 12:48:00,
2013-02-08 08:03:00,29.9,26.0,30.01,WNW,291,13.0,19.0,85,0.00,,,0.01,weatherlink.com 1.10,2013-02-08 13:03:00,
2013-02-08 08:18:00,29.6,26.0,30.02,NNE,20,4.0,16.0,86,0.00,,,0.01,weatherlink.com 1.10,2013-02-08 13:18:00,
2013-02-08 08:33:00,29.7,26.0,30.03,North,351,13.0,17.0,86,0.00,,,0.01,weatherlink.com 1.10,2013-02-08 13:33:00,
2013-02-08 08:48:00,29.7,26.0,30.04,SE,136,1.0,17.0,86,0.00,,,0.01,weatherlink.com 1.10,2013-02-08 13:48:00,
2013-02-08 09:03:00,29.8,26.0,30.06,NW,310,8.0,16.0,86,0.00,,,0.01,weatherlink.com 1.10,2013-02-08 14:03:00,
2013-02-08 09:18:00,29.9,26.0,30.07,North,355,8.0,16.0,86,0.00,,,0.01,weatherlink.com 1.10,2013-02-08 14:18:00,
2013-02-08 09:33:00,29.9,26.0,30.07,NNW,348,12.0,14.0,85,0.00,,,0.01,weatherlink.com 1.10,2013-02-08 14:33:00,
2013-02-08 09:48:00,29.9,26.0,30.09,NE,42,7.0,17.0,85,0.00,,,0.01,weatherlink.com 1.10,2013-02-08 14:48:00,
2013-02-08 10:03:00,30.0,26.0,30.10,NNW,333,3.0,15.0,85,0.00,,,0.01,weatherlink.com 1.10,2013-02-08 15:03:00,
2013-02-08 10:18:00,30.0,26.0,30.10,NNE,13,10.0,15.0,85,0.00,,,0.01,weatherlink.com 1.10,2013-02-08 15:18:00,
2013-02-08 10:33:00,30.0,26.0,30.11,North,9,9.0,17.0,85,0.00,,,0.01,weatherlink.com 1.10,2013-02-08 15:33:00,
2013-02-08 10:48:00,30.1,26.0,30.12,NNE,20,12.0,18.0,85,0.00,,,0.01,weatherlink.com 1.10,2013-02-08 15:48:00,
2013-02-08 11:04:00,30.1,26.0,30.14,NNW,344,11.0,20.0,84,0.00,,,0.01,weatherlink.com 1.10,2013-02-08 16:04:00,
2013-02-08 11:19:00,30.2,26.0,30.15,NW,322,4.0,12.0,85,0.00,,,0.01,weatherlink.com 1.10,2013-02-08 16:19:00,
2013-02-08 11:34:00,30.3,26.0,30.15,NNE,26,8.0,15.0,84,0.00,,,0.01,weatherlink.com 1.10,2013-02-08 16:34:00,
2013-02-08 11:49:00,30.6,26.0,30.15,NE,46,10.0,14.0,82,0.00,,,0.01,weatherlink.com 1.10,2013-02-08 16:49:00,
2013-02-08 12:04:00,30.7,26.0,30.16,NNE,32,5.0,13.0,83,0.00,,,0.01,weatherlink.com 1.10,2013-02-08 17:04:00,
2013-02-08 12:19:00,30.6,26.0,30.17,NNW,348,5.0,13.0,83,0.00,,,0.01,weatherlink.com 1.10,2013-02-08 17:19:00,
2013-02-08 12:34:00,30.6,26.0,30.18,North,355,1.0,15.0,84,0.00,,,0.01,weatherlink.com 1.10,2013-02-08 17:34:00,
2013-02-08 12:49:00,30.3,26.0,30.18,West,276,6.0,16.0,84,0.00,,,0.01,weatherlink.com 1.10,2013-02-08 17:49:00,
2013-02-08 13:04:00,30.5,26.0,30.18,NNE,16,3.0,13.0,83,0.00,,,0.01,weatherlink.com 1.10,2013-02-08 18:04:00,
2013-02-08 13:34:00,30.8,26.0,30.18,NNW,327,9.0,15.0,81,0.00,,,0.01,weatherlink.com 1.10,2013-02-08 18:34:00,
2013-02-08 13:49:00,31.1,25.0,30.18,NNE,27,9.0,15.0,78,0.00,,,0.01,weatherlink.com 1.10,2013-02-08 18:49:00,
2013-02-08 14:04:00,31.3,25.0,30.19,NNE,20,6.0,15.0,76,0.00,,,0.01,weatherlink.com 1.10,2013-02-08 19:04:00,
2013-02-08 14:19:00,31.9,25.0,30.20,NNE,20,3.0,19.0,75,0.00,,,0.01,weatherlink.com 1.10,2013-02-08 19:19:00,
2013-02-08 14:34:00,32.1,26.0,30.20,NNW,340,5.0,15.0,77,0.00,,,0.01,weatherlink.com 1.10,2013-02-08 19:34:00,
2013-02-08 14:49:00,31.7,25.0,30.20,NE,43,5.0,12.0,76,0.00,,,0.01,weatherlink.com 1.10,2013-02-08 19:49:00,
2013-02-08 15:04:00,31.4,24.0,30.21,NNE,16,4.0,18.0,75,0.00,,,0.01,weatherlink.com 1.10,2013-02-08 20:04:00,
2013-02-08 15:19:00,31.3,26.0,30.21,NNW,347,5.0,13.0,79,0.00,,,0.01,weatherlink.com 1.10,2013-02-08 20:19:00,
2013-02-08 15:34:00,31.1,25.0,30.22,NE,38,5.0,13.0,78,0.00,,,0.01,weatherlink.com 1.10,2013-02-08 20:34:00,
2013-02-08 15:49:00,31.2,25.0,30.23,North,5,2.0,13.0,77,0.00,,,0.01,weatherlink.com 1.10,2013-02-08 20:49:00,
2013-02-08 16:19:00,30.8,24.0,30.25,North,5,4.0,11.0,77,0.00,,,0.01,weatherlink.com 1.10,2013-02-08 21:19:00,
2013-02-08 16:34:00,30.6,24.0,30.25,ENE,78,5.0,11.0,76,0.00,,,0.01,weatherlink.com 1.10,2013-02-08 21:34:00,
2013-02-08 16:49:00,30.7,24.0,30.25,NNE,22,4.0,11.0,76,0.00,,,0.01,weatherlink.com 1.10,2013-02-08 21:49:00,
2013-02-08 17:04:00,30.4,24.0,30.26,NE,44,2.0,11.0,76,0.00,,,0.01,weatherlink.com 1.10,2013-02-08 22:04:00,
2013-02-08 17:19:00,30.2,24.0,30.27,NNE,26,4.0,13.0,78,0.00,,,0.01,weatherlink.com 1.10,2013-02-08 22:19:00,
2013-02-08 17:34:00,29.7,23.0,30.28,WNW,282,2.0,11.0,77,0.00,,,0.01,weatherlink.com 1.10,2013-02-08 22:34:00,
2013-02-08 17:49:00,29.4,23.0,30.29,NNE,15,5.0,9.0,77,0.00,,,0.01,weatherlink.com 1.10,2013-02-08 22:49:00,
2013-02-08 18:04:00,29.2,23.0,30.29,NE,39,3.0,13.0,78,0.00,,,0.01,weatherlink.com 1.10,2013-02-08 23:04:00,
2013-02-08 18:19:00,28.8,22.0,30.29,NE,45,3.0,10.0,76,0.00,,,0.01,weatherlink.com 1.10,2013-02-08 23:19:00,
2013-02-08 18:34:00,28.6,22.0,30.30,North,11,1.0,9.0,76,0.00,,,0.01,weatherlink.com 1.10,2013-02-08 23:34:00,
2013-02-08 18:49:00,28.2,22.0,30.30,NE,35,2.0,5.0,78,0.00,,,0.01,weatherlink.com 1.10,2013-02-08 23:49:00,
2013-02-08 19:04:00,27.9,22.0,30.31,North,355,0.0,5.0,79,0.00,,,0.01,weatherlink.com 1.10,2013-02-09 00:04:00,
2013-02-08 19:19:00,27.6,22.0,30.32,NW,312,0.0,6.0,79,0.00,,,0.01,weatherlink.com 1.10,2013-02-09 00:19:00,
2013-02-08 19:35:00,27.2,22.0,30.33,NW,319,0.0,3.0,80,0.00,,,0.01,weatherlink.com 1.10,2013-02-09 00:35:00,
2013-02-08 19:50:00,26.9,22.0,30.33,NW,316,0.0,3.0,81,0.00,,,0.01,weatherlink.com 1.10,2013-02-09 00:50:00,
2013-02-08 20:05:00,26.8,22.0,30.34,North,9,1.0,3.0,82,0.00,,,0.01,weatherlink.com 1.10,2013-02-09 01:05:00,
2013-02-08 20:20:00,26.6,22.0,30.34,WNW,298,0.0,2.0,82,0.00,,,0.01,weatherlink.com 1.10,2013-02-09 01:20:00,
2013-02-08 20:35:00,26.0,22.0,30.34,NW,313,0.0,3.0,83,0.00,,,0.01,weatherlink.com 1.10,2013-02-09 01:35:00,
2013-02-08 20:50:00,25.6,21.0,30.35,WNW,298,0.0,1.0,83,0.00,,,0.01,weatherlink.com 1.10,2013-02-09 01:50:00,
2013-02-08 21:05:00,24.9,21.0,30.35,West,281,0.0,2.0,85,0.00,,,0.01,weatherlink.com 1.10,2013-02-09 02:05:00,
2013-02-08 21:20:00,24.5,21.0,30.35,West,281,0.0,0.0,86,0.00,,,0.01,weatherlink.com 1.10,2013-02-09 02:20:00,
2013-02-08 21:35:00,24.2,21.0,30.36,West,281,0.0,1.0,86,0.00,,,0.01,weatherlink.com 1.10,2013-02-09 02:35:00,
2013-02-08 21:50:00,24.4,21.0,30.36,NNW,338,0.0,2.0,86,0.00,,,0.01,weatherlink.com 1.10,2013-02-09 02:50:00,
2013-02-08 22:05:00,25.2,20.0,30.36,NNE,29,0.0,3.0,82,0.00,,,0.01,weatherlink.com 1.10,2013-02-09 03:05:00,
2013-02-08 22:20:00,25.3,20.0,30.37,NNW,328,0.0,1.0,81,0.00,,,0.01,weatherlink.com 1.10,2013-02-09 03:20:00,
2013-02-08 22:35:00,25.3,21.0,30.37,NW,323,0.0,2.0,82,0.00,,,0.01,weatherlink.com 1.10,2013-02-09 03:35:00,
2013-02-08 22:50:00,25.4,20.0,30.38,NW,323,0.0,2.0,81,0.00,,,0.01,weatherlink.com 1.10,2013-02-09 03:50:00,
2013-02-08 23:05:00,25.4,20.0,30.37,NW,323,0.0,0.0,81,0.00,,,0.01,weatherlink.com 1.10,2013-02-09 04:05:00,
2013-02-08 23:20:00,25.2,20.0,30.37,NW,323,0.0,0.0,81,0.00,,,0.01,weatherlink.com 1.10,2013-02-09 04:20:00,
2013-02-08 23:35:00,25.1,20.0,30.37,NW,323,0.0,0.0,81,0.00,,,0.00,weatherlink.com 1.10,2013-02-09 04:35:00,
2013-02-08 23:50:00,24.8,20.0,30.37,NW,316,0.0,1.0,82,0.00,,,0.00,weatherlink.com 1.10,2013-02-09 04:50:00,